Waarnemingen

Advertentie
Mijn weer
Gela, Italië (16453): temperatuur & dauwpunt: 17.10.2018 22:00:00 - 23.10.2018 22:00:00 (CEST)Gela, Italië (16453): windsnelheid: 17.10.2018 22:00:00 - 23.10.2018 22:00:00 (CEST)Gela, Italië (16453): windrichting: 17.10.2018 22:00:00 - 23.10.2018 22:00:00 (CEST)Gela, Italië (16453): luchtdruk: 17.10.2018 22:00:00 - 23.10.2018 22:00:00 (CEST)Gela, Italië (16453): zicht: 17.10.2018 22:00:00 - 23.10.2018 22:00:00 (CEST)Gela, Italië (16453): Zonneschijnduur: 17.10.2018 22:00:00 - 23.10.2018 22:00:00 (CEST)
Datum & Tijd tt [°C] td [°C] ff [km/u] ff [kn] dd ppp [hPa] vv [km] sd [min]
23.10.2018 22:00:00 - - - - - - - -
23.10.2018 21:00:00 - - - - - - - -
23.10.2018 20:00:00 20,8 12,8 13 7 NNO 1011,0 16 0
23.10.2018 19:00:00 21,0 13,0 8 4 N - 10 -
23.10.2018 18:00:00 22,0 12,0 11 6 NO - 10 -
23.10.2018 17:00:00 22,4 12,4 11 6 NO 1009,9 20 -
23.10.2018 16:00:00 23,0 13,0 8 4 ZW - 10 -
23.10.2018 15:00:00 21,0 14,0 5 3 ZZW - 10 -
23.10.2018 14:00:00 22,6 10,7 8 4 ONO 1010,0 20 60
23.10.2018 13:00:00 22,0 11,0 11 6 NO - 10 -
23.10.2018 12:00:00 20,0 11,0 18 10 NO - 10 -
23.10.2018 11:00:00 19,0 11,1 22 12 ONO 1010,1 20 60
23.10.2018 10:00:00 18,0 11,0 13 7 NO - 10 -
23.10.2018 09:00:00 16,0 11,0 9 5 NNO - 10 -
23.10.2018 08:00:00 16,2 11,8 9 5 ONO 1008,4 20 -
23.10.2018 07:00:00 - - - - - - - -
23.10.2018 06:00:00 - - - - - - - -
23.10.2018 05:00:00 - - - - - - - -
23.10.2018 04:00:00 - - - - - - - -
23.10.2018 03:00:00 - - - - - - - -
23.10.2018 02:00:00 - - - - - - - -
23.10.2018 01:00:00 - - - - - - - -
23.10.2018 00:00:00 - - - - - - - -
22.10.2018 23:00:00 - - - - - - - -
22.10.2018 22:00:00 - - - - - - - -
22.10.2018 21:00:00 - - - - - - - -
22.10.2018 20:00:00 20,4 10,2 8 4 NW 1009,5 10 0
22.10.2018 19:00:00 21,0 11,0 18 10 W - 10 -
22.10.2018 18:00:00 21,0 13,0 24 13 W - 10 -
22.10.2018 17:00:00 21,0 13,7 29 16 W 1009,3 18 60
22.10.2018 16:00:00 22,0 14,0 21 11 W - 10 -
22.10.2018 15:00:00 22,0 14,0 18 10 W - 10 -
22.10.2018 14:00:00 22,0 13,1 16 9 W 1011,1 18 60
22.10.2018 13:00:00 21,0 13,0 9 5 WZW - 10 -
22.10.2018 12:00:00 20,0 13,0 8 4 ZW - 10 -
22.10.2018 11:00:00 22,0 14,6 0 0 N 1011,2 25 60
22.10.2018 10:00:00 19,0 14,0 0 0 N - 10 -
22.10.2018 09:00:00 18,0 13,0 4 2 OZO - 10 -
22.10.2018 08:00:00 17,8 13,7 9 5 NO 1011,2 15 0
22.10.2018 07:00:00 - - - - - - - -
22.10.2018 06:00:00 - - - - - - - -
22.10.2018 05:00:00 - - - - - - - -
22.10.2018 04:00:00 - - - - - - - -
22.10.2018 03:00:00 - - - - - - - -
22.10.2018 02:00:00 - - - - - - - -
22.10.2018 01:00:00 - - - - - - - -
22.10.2018 00:00:00 - - - - - - - -
21.10.2018 23:00:00 - - - - - - - -
21.10.2018 22:00:00 - - - - - - - -
21.10.2018 21:00:00 - - - - - - - -
21.10.2018 20:00:00 21,8 17,4 5 3 WNW 1014,1 12 0
21.10.2018 19:00:00 23,0 18,0 13 7 W - 10 -
21.10.2018 18:00:00 23,0 18,0 16 9 ZW - 10 -
21.10.2018 17:00:00 23,4 18,1 11 6 WZW 1014,8 20 48
21.10.2018 16:00:00 23,0 18,0 11 6 WZW - 10 -
21.10.2018 15:00:00 23,0 18,0 11 6 ZW - 10 -
21.10.2018 14:00:00 22,8 17,3 9 5 ZW 1016,1 18 48
21.10.2018 13:00:00 24,0 18,0 5 3 WZW - 10 -
21.10.2018 12:00:00 22,0 17,0 5 3 ZW - 10 -
21.10.2018 11:00:00 22,0 18,0 0 0 N 1017,2 15 0
21.10.2018 10:00:00 21,0 17,0 5 3 ONO - 10 -
21.10.2018 09:00:00 20,0 17,0 4 2 - - 10 -
21.10.2018 08:00:00 20,2 16,4 5 3 ONO 1017,2 15 -
21.10.2018 07:00:00 - - - - - - - -
21.10.2018 06:00:00 - - - - - - - -
21.10.2018 05:00:00 - - - - - - - -
21.10.2018 04:00:00 - - - - - - - -
21.10.2018 03:00:00 - - - - - - - -
21.10.2018 02:00:00 - - - - - - - -
21.10.2018 01:00:00 - - - - - - - -
21.10.2018 00:00:00 - - - - - - - -
20.10.2018 23:00:00 - - - - - - - -
20.10.2018 22:00:00 - - - - - - - -
20.10.2018 21:00:00 - - - - - - - -
20.10.2018 20:00:00 22,8 16,6 2 1 NNW 1018,5 15 0
20.10.2018 19:00:00 23,0 17,0 8 4 W - 10 -
20.10.2018 18:00:00 23,0 17,0 13 7 W - 10 -
20.10.2018 17:00:00 23,8 16,6 13 7 W 1017,7 14 60
20.10.2018 16:00:00 24,0 17,0 15 8 W - 10 -
20.10.2018 15:00:00 24,0 16,0 11 6 W - 10 -
20.10.2018 14:00:00 23,8 16,1 9 5 WZW 1018,5 15 60
20.10.2018 13:00:00 24,0 16,0 11 6 WZW - 10 -
20.10.2018 12:00:00 24,0 16,0 2 1 WZW - 10 -
20.10.2018 11:00:00 23,4 16,7 11 6 NO 1018,5 10 60
20.10.2018 10:00:00 23,0 17,0 15 8 NO - 10 -
20.10.2018 09:00:00 21,0 17,0 9 5 NO - 10 -
20.10.2018 08:00:00 20,6 16,4 11 6 NO 1016,9 10 0
20.10.2018 07:00:00 - - - - - - - -
20.10.2018 06:00:00 - - - - - - - -
20.10.2018 05:00:00 - - - - - - - -
20.10.2018 04:00:00 - - - - - - - -
20.10.2018 03:00:00 - - - - - - - -
20.10.2018 02:00:00 - - - - - - - -
20.10.2018 01:00:00 - - - - - - - -
20.10.2018 00:00:00 - - - - - - - -
19.10.2018 23:00:00 - - - - - - - -
19.10.2018 22:00:00 - - - - - - - -
19.10.2018 21:00:00 - - - - - - - -
19.10.2018 20:00:00 22,0 15,6 9 5 NO 1013,3 10 0
19.10.2018 19:00:00 22,0 15,0 4 2 W - 10 -
19.10.2018 18:00:00 23,0 14,0 5 3 ZW - 10 -
19.10.2018 17:00:00 23,2 14,2 8 4 WZW 1012,1 20 60
19.10.2018 16:00:00 24,0 15,0 11 6 ZW - 10 -
19.10.2018 15:00:00 24,0 14,0 8 4 ZW - 10 -
19.10.2018 14:00:00 24,4 14,8 13 7 ONO 1012,0 20 60
19.10.2018 13:00:00 23,0 13,0 8 4 NO - 10 -
19.10.2018 12:00:00 23,0 17,0 13 7 NO - 10 -
19.10.2018 11:00:00 21,0 14,9 9 5 ONO 1012,0 20 60
19.10.2018 10:00:00 20,0 16,0 11 6 NO - 10 -
19.10.2018 09:00:00 18,0 13,0 8 4 NO - 10 -
19.10.2018 08:00:00 18,0 13,5 15 8 ONO 1010,2 15 0
19.10.2018 07:00:00 - - - - - - - -
19.10.2018 06:00:00 - - - - - - - -
19.10.2018 05:00:00 - - - - - - - -
19.10.2018 04:00:00 - - - - - - - -
19.10.2018 03:00:00 - - - - - - - -
19.10.2018 02:00:00 - - - - - - - -
19.10.2018 01:00:00 - - - - - - - -
19.10.2018 00:00:00 - - - - - - - -
18.10.2018 23:00:00 - - - - - - - -
18.10.2018 22:00:00 - - - - - - - -
18.10.2018 21:00:00 - - - - - - - -
18.10.2018 20:00:00 17,0 13,9 21 11 NO 1011,4 4,0 0
18.10.2018 19:00:00 20,0 16,0 15 8 N - 4,0 -
18.10.2018 18:00:00 21,0 15,0 15 8 Z - 3,0 -
18.10.2018 17:00:00 23,8 16,6 16 9 ONO 1008,1 10 -
18.10.2018 16:00:00 - - - - - - - -
18.10.2018 15:00:00 - - - - - - - -
18.10.2018 14:00:00 24,2 16,2 29 16 ONO 1017,0 18 0
18.10.2018 13:00:00 24,0 16,0 31 17 ONO - 10 -
18.10.2018 12:00:00 24,0 16,0 26 14 ONO - 10 -
18.10.2018 11:00:00 23,2 16,3 28 15 ONO 1019,0 10 0
18.10.2018 10:00:00 23,0 16,0 29 16 ONO - 10 -
18.10.2018 09:00:00 - - - - - - - -
18.10.2018 08:00:00 22,0 16,5 18 10 ONO 1019,1 14 -
18.10.2018 07:00:00 - - - - - - - -
18.10.2018 06:00:00 - - - - - - - -
18.10.2018 05:00:00 - - - - - - - -
18.10.2018 04:00:00 - - - - - - - -
18.10.2018 03:00:00 - - - - - - - -
18.10.2018 02:00:00 - - - - - - - -
18.10.2018 01:00:00 - - - - - - - -
18.10.2018 00:00:00 - - - - - - - -
17.10.2018 23:00:00 - - - - - - - -
17.10.2018 22:00:00 - - - - - - - -

tt = temperatuur
td = dauwpunt
ff = windsnelheid
dd = windrichting
ppp = luchtdruk
vv = zicht
sd = Zonneschijnduur

Weerstations in de omgeving